Weather History for Eagle, AK

Change the Weather History Date:

Tuesday, March 13, 2012

  Actual Average (PABN) Record (PABN)
Temperature  
Mean Temperature -2 °F -  
Max Temperature 3 °F 17 °F 39 °F (1997)
Min Temperature -9 °F 3 °F -22 °F (2003)
Degree Days  
Heating Degree Days 68    
Moisture  
Dew Point -17 °F    
Average Humidity 51    
Maximum Humidity 72    
Minimum Humidity 39    
Precipitation  
Precipitation 0.00 in - - ()
Sea Level Pressure  
Sea Level Pressure 29.46 in    
Wind  
Wind Speed 4 mph (ESE)    
Max Wind Speed 10 mph    
Max Gust Speed 18 mph    
Visibility 10 miles    
Events Snow    
Averages and records for this station are not official NWS values.
T = Trace of Precipitation, MM = Missing Value Source: NWS Daily Summary

Daily Weather History Graph

Daily Weather History Graph

Search for Another Location

Airport:

Trip Planner

Search our weather history database for the weather conditions in past years. The results will help you decide how hot, cold, wet, or windy it might be!

Date:

Astronomy

Mar. 13, 2012 Rise Set
Actual Time 7:48 AM AKDT 7:21 PM AKDT
Civil Twilight 6:59 AM AKDT 8:09 PM AKDT
Nautical Twilight 6:01 AM AKDT 9:08 PM AKDT
Astronomical Twilight 4:58 AM AKDT 10:12 PM AKDT
Moon 3:46 AM AKDT (3/13) 8:21 AM AKDT (3/13)
Length of Visible Light 13h 10m
Length of Day
11h 33m
Waning Gibbous, 64% of the Moon is Illuminated
Mar 13
Waning Gibbous
Mar 14
Last Quarter
Mar 22
New
Mar 30
First Quarter
Apr 6
Full

Hourly Weather History & Observations

Time (AKDT) Temp. Windchill Dew Point Humidity Pressure Visibility Wind Dir Wind Speed Gust Speed Precip Events Conditions
12:53 AM -8.0 °F -16.9 °F -15.0 °F 71% 29.55 in 10.0 mi WSW 3.5 mph - N/A   Overcast
1:53 AM -7.1 °F - -14.1 °F 72% 29.52 in 8.0 mi Calm Calm - 0.00 in   Overcast
2:53 AM -6.0 °F - -13.0 °F 72% 29.51 in 6.0 mi Calm Calm - 0.00 in Snow Light Snow
3:53 AM -5.1 °F - -11.9 °F 72% 29.49 in 10.0 mi Calm Calm - 0.00 in   Overcast
4:53 AM -4.0 °F - -11.0 °F 72% 29.48 in 10.0 mi Calm Calm - N/A   Overcast
5:53 AM -2.9 °F -11.2 °F -14.1 °F 59% 29.47 in 10.0 mi SE 3.5 mph - N/A   Overcast
6:53 AM -4.0 °F -17.8 °F -18.0 °F 51% 29.47 in 10.0 mi Variable 6.9 mph - N/A   Overcast
7:53 AM -5.1 °F -19.1 °F -18.9 °F 51% 29.46 in 10.0 mi ESE 6.9 mph - N/A   Overcast
8:53 AM -6.0 °F -22.6 °F -20.9 °F 49% 29.46 in 10.0 mi ESE 9.2 mph - N/A   Scattered Clouds
9:53 AM -4.0 °F -17.8 °F -20.9 °F 44% 29.46 in 10.0 mi Variable 6.9 mph - N/A   Clear
10:53 AM -2.0 °F -15.4 °F -20.0 °F 42% 29.45 in 10.0 mi Variable 6.9 mph - N/A   Clear
11:53 AM -0.9 °F -14.1 °F -20.0 °F 40% 29.45 in 10.0 mi Variable 6.9 mph - N/A   Clear
12:53 PM 1.0 °F -14.0 °F -18.9 °F 39% 29.44 in 10.0 mi ESE 9.2 mph - N/A   Clear
1:53 PM 1.9 °F -10.6 °F -18.0 °F 39% 29.43 in 10.0 mi Variable 6.9 mph - N/A   Clear
2:53 PM 3.0 °F -10.5 °F -17.0 °F 39% 29.43 in 10.0 mi East 8.1 mph - N/A   Clear
3:53 PM 3.0 °F -12.5 °F -17.0 °F 39% 29.42 in 10.0 mi East 10.4 mph 18.4 mph N/A   Clear
4:53 PM 3.0 °F -12.5 °F -17.0 °F 39% 29.43 in 10.0 mi East 10.4 mph 17.3 mph N/A   Clear
5:53 PM 1.9 °F -12.9 °F -17.0 °F 41% 29.44 in 10.0 mi East 9.2 mph 17.3 mph N/A   Clear
6:53 PM -0.0 °F -14.2 °F -18.0 °F 43% 29.45 in 10.0 mi East 8.1 mph 16.1 mph N/A   Clear
7:53 PM -2.0 °F -18.7 °F -18.9 °F 45% 29.46 in 10.0 mi East 10.4 mph 17.3 mph N/A   Clear
8:53 PM -4.0 °F -12.4 °F -18.9 °F 49% 29.46 in 10.0 mi Variable 3.5 mph - N/A   Clear
9:53 PM -2.9 °F -15.0 °F -18.9 °F 46% 29.47 in 10.0 mi Variable 5.8 mph - N/A   Overcast
10:53 PM -5.1 °F - -18.9 °F 51% 29.47 in 10.0 mi Calm Calm - N/A   Overcast
11:53 PM -9.9 °F - -20.9 °F 59% 29.47 in 10.0 mi Calm Calm - N/A   Clear